RH
7 7 7 7 8 8 8 9 9 9 8 8 9 9 11 13 14 16 18 18 16 12 9 7 5 3 2 2 2 2 3 5 6 6 8 8 9 12 13 13 11 12 11 8 8 8 8 10 12 19 26 28 31 39 60 77 79 82 89 93 96 99 98 93 81 70 67 63 73 86 82 81 76 75 74 69 65 54 57 62 52 52 51 47 46 48 51 50
5 5 5 5 5 5 6 7 7 8 9 9 8 8 9 10 12 13 15 17 17 15 11 8 5 3 2 1 2 2 2 3 4 6 7 7 9 11 13 13 11 12 11 9 8 8 8 10 14 20 24 30 37 48 66 77 77 81 86 90 95 98 93 85 78 69 67 61 65 81 83 81 75 72 72 66 60 57 59 58 52 52 53 50 48 48 50 49
5 5 5 5 4 4 4 4 5 6 6 8 8 9 8 8 9 10 12 15 17 17 14 11 7 4 2 2 2 1 2 2 3 5 6 6 8 10 13 14 13 13 11 9 8 8 10 12 14 16 24 42 53 60 71 74 73 79 84 89 94 95 89 85 82 69 65 62 61 78 86 81 78 74 70 62 57 58 54 49 48 50 53 49 45 47 49 50
4 4 4 4 4 4 4 4 4 4 4 5 6 7 8 9 8 8 9 12 14 16 16 14 9 5 3 2 1 2 2 2 2 3 5 6 7 9 11 13 15 14 12 9 7 8 10 11 15 23 42 62 65 66 72 70 72 79 83 88 91 92 91 88 82 69 65 63 59 75 85 81 79 75 69 60 50 52 49 45 45 46 50 45 41 47 50 51
4 4 4 4 3 3 3 4 3 3 4 3 4 5 6 8 8 9 8 9 11 14 15 15 12 7 3 2 2 2 1 2 3 2 4 5 6 8 10 13 14 15 13 10 7 7 8 9 18 38 59 67 63 67 71 69 72 76 81 87 87 90 92 85 76 70 66 67 70 79 83 78 78 74 67 61 47 40 43 46 48 46 45 40 40 48 50 52
3 3 3 3 3 3 3 3 3 3 3 3 3 3 4 5 6 8 8 8 9 11 14 15 14 10 5 3 2 2 1 5 9 5 2 5 6 7 9 11 13 16 14 10 7 6 8 9 25 49 59 61 64 72 74 72 71 73 82 86 82 86 90 80 72 74 71 70 79 81 81 77 75 75 70 70 62 51 57 59 52 48 43 37 41 47 48 52
2 2 2 2 2 2 3 2 3 3 3 3 3 3 3 3 4 5 7 8 8 9 11 13 15 12 7 3 2 2 1 7 18 14 5 3 5 6 8 10 12 15 14 12 7 6 8 8 30 56 61 63 71 75 75 75 73 74 83 83 77 80 87 83 71 77 81 77 81 82 80 77 73 76 75 77 76 67 72 74 66 55 42 37 40 44 47 51
2 2 2 2 2 2 3 2 2 2 2 3 3 3 3 3 3 3 4 7 8 8 9 11 14 13 9 4 3 2 1 8 21 24 15 4 4 6 7 9 12 14 16 14 7 7 7 8 33 59 64 69 71 71 73 76 76 76 81 80 77 77 80 84 73 72 82 83 89 87 80 81 79 78 77 78 77 72 74 76 78 65 42 36 39 41 46 51
2 2 2 2 2 3 2 2 3 2 2 2 3 3 3 3 3 3 3 4 6 8 8 9 12 13 10 5 3 2 4 13 22 28 24 8 3 6 6 8 11 13 16 15 10 6 5 18 46 64 68 72 68 63 65 71 77 77 80 79 77 76 69 73 75 70 77 83 88 89 85 86 87 81 78 79 75 73 76 73 75 65 42 36 40 41 45 48
2 2 2 2 2 2 2 3 3 3 3 3 2 3 3 3 3 3 3 2 4 6 8 8 9 12 11 6 4 2 6 15 22 26 25 14 4 5 6 8 10 13 16 15 10 3 11 38 61 68 67 68 63 55 54 60 70 73 76 77 76 75 64 63 76 75 76 85 85 89 93 91 90 87 81 81 77 75 78 73 68 56 38 35 40 43 45 47
3 3 2 3 2 2 3 2 3 3 3 3 3 3 2 3 3 3 3 3 3 4 7 8 8 10 10 8 4 4 6 10 16 20 21 18 9 5 6 7 10 13 15 17 10 4 26 55 64 64 60 59 55 48 49 50 55 59 61 72 75 72 65 61 75 79 76 85 85 87 95 93 93 92 84 81 77 75 77 75 72 57 38 35 40 42 44 48
3 3 3 3 3 3 3 2 3 3 2 3 3 3 3 3 3 3 3 3 2 3 5 7 8 9 10 8 3 6 10 7 8 12 15 18 14 8 5 7 10 12 16 16 8 8 37 60 59 56 53 52 48 45 52 50 49 48 49 68 74 68 64 60 74 82 77 83 84 83 91 94 93 91 90 87 77 77 78 75 78 66 44 37 40 42 43 48
3 3 3 3 3 3 2 3 3 2 3 3 3 3 3 3 3 3 3 3 3 3 3 6 8 8 9 8 3 6 12 11 8 8 9 13 16 11 5 7 8 13 18 14 11 25 49 59 54 52 51 47 42 48 57 55 59 57 54 70 74 66 63 64 77 83 80 85 83 82 90 95 94 90 91 87 78 79 81 78 78 66 48 42 42 41 42 45
3 3 2 2 2 2 2 2 2 2 2 2 3 3 3 3 3 3 3 3 3 2 3 5 6 7 8 6 5 7 10 14 14 10 8 8 14 14 7 6 9 15 17 16 28 48 56 54 51 50 49 44 40 49 51 49 69 75 67 73 73 65 59 68 83 80 82 89 84 81 88 91 91 92 91 87 82 79 80 79 67 51 42 43 43 42 41 41
3 3 2 2 2 2 2 2 3 3 3 3 3 3 3 3 3 3 4 3 3 3 2 4 6 6 5 4 6 6 8 15 18 16 12 8 10 14 9 4 10 16 16 26 46 57 54 51 50 47 46 44 39 44 41 45 72 84 74 72 71 63 58 72 85 81 82 86 82 84 91 93 91 92 90 89 89 83 80 77 59 38 35 41 44 44 40 37
3 2 2 2 2 2 3 5 6 6 6 6 5 4 4 3 4 4 5 4 3 3 2 4 6 5 4 6 6 7 13 22 24 19 14 9 8 12 10 4 11 16 16 34 53 55 53 51 47 46 44 42 38 37 41 57 76 80 75 69 67 63 60 71 81 82 83 79 77 85 90 92 94 95 87 87 94 89 81 76 61 39 32 39 43 44 42 36
3 2 2 2 3 5 7 9 10 9 9 9 8 8 6 4 5 6 8 7 3 3 3 4 6 5 6 8 11 14 18 24 23 16 11 9 9 10 8 4 11 17 17 35 52 52 51 49 44 45 43 39 38 35 47 72 82 78 76 70 66 64 61 66 72 79 83 80 79 82 84 81 88 94 83 86 97 92 81 73 64 47 37 38 40 44 44 36
3 3 3 4 6 9 10 11 10 9 9 10 10 9 8 6 6 8 12 10 5 3 3 5 6 6 8 12 20 21 18 21 23 16 8 7 8 8 5 5 13 18 24 38 49 49 48 46 43 43 42 39 38 36 44 64 72 72 72 67 66 64 62 64 68 73 77 83 84 82 83 80 85 90 82 89 99 91 82 72 60 51 43 40 37 43 44 35
3 3 5 8 10 11 11 11 9 7 5 8 10 9 8 7 6 9 14 15 11 6 4 6 5 9 16 23 29 27 23 28 28 16 8 7 7 6 4 9 18 24 33 39 41 45 46 43 42 41 42 40 41 40 39 47 56 64 65 62 62 60 60 64 68 74 75 84 90 82 83 83 81 85 85 94 99 93 91 82 67 54 48 42 36 42 43 33
3 5 8 11 12 12 12 11 8 5 4 7 8 9 14 18 17 16 18 20 18 11 8 5 6 17 27 31 32 30 32 35 32 20 12 10 5 5 12 20 31 36 37 37 38 42 43 43 41 40 43 43 43 42 40 46 52 58 65 66 65 58 59 66 70 76 77 85 92 83 87 90 79 82 91 95 97 96 96 91 80 67 59 52 41 41 39 31
4 6 10 13 13 13 13 11 9 6 5 5 7 14 25 30 27 22 18 18 19 14 10 7 14 27 33 33 33 35 41 38 36 32 24 21 15 15 28 38 44 44 37 37 40 40 40 41 37 36 43 43 42 41 42 48 45 46 56 61 65 65 62 66 70 76 77 83 88 81 89 96 86 89 96 96 96 95 93 90 84 77 71 66 55 45 40 46
6 9 12 15 14 15 14 12 11 8 6 7 11 20 28 32 30 24 16 14 19 15 11 16 27 36 37 37 37 38 42 37 39 45 37 35 31 29 41 49 50 46 41 40 38 37 37 34 26 27 39 43 42 41 41 44 40 40 43 42 53 65 64 68 76 82 77 75 83 82 86 93 91 95 97 95 93 89 90 91 88 82 76 74 70 58 49 59
8 12 14 16 16 17 17 16 15 12 11 14 19 20 21 27 27 20 12 10 15 12 13 26 35 40 43 44 43 40 37 33 40 50 44 40 37 35 41 48 51 48 45 41 35 34 31 22 17 19 32 42 41 40 42 41 40 42 38 31 38 47 54 66 78 86 77 72 84 87 88 94 91 90 92 92 90 87 90 92 91 86 80 79 77 69 59 59
10 13 15 17 19 21 21 22 21 18 17 19 20 18 18 24 20 13 9 6 8 8 15 31 36 39 43 42 43 41 34 33 41 48 47 44 42 39 39 41 46 47 45 41 33 31 24 15 17 19 27 38 41 41 41 40 41 43 35 27 27 28 41 59 68 78 81 81 88 88 92 99 91 86 89 88 85 87 90 90 91 88 85 83 78 74 69 59
12 15 16 17 21 25 25 27 26 21 22 23 21 18 19 19 12 9 12 9 10 10 14 29 34 36 38 35 36 38 35 36 41 45 47 49 47 43 40 38 39 40 41 38 31 27 20 17 20 20 22 29 36 40 41 41 41 37 28 23 21 18 32 55 61 71 89 95 91 89 95 99 93 89 90 88 85 85 87 88 89 86 86 85 78 73 73 68
14 16 17 18 22 24 25 30 29 24 27 27 24 20 16 13 12 18 22 20 19 14 12 24 32 32 33 32 33 37 38 38 41 41 40 44 45 41 41 40 35 33 32 28 28 24 17 18 20 17 17 19 26 36 41 42 37 30 23 19 19 16 26 52 60 66 86 91 84 89 92 90 95 98 93 88 86 86 87 88 87 83 84 83 78 73 72 75
15 16 18 19 21 21 26 30 27 27 30 25 20 19 13 15 24 29 31 30 26 18 17 26 29 28 30 32 35 38 38 39 43 42 37 39 41 39 39 38 32 30 26 23 27 22 13 19 23 17 17 15 19 31 40 41 35 26 20 16 18 16 21 46 58 57 67 73 80 91 86 80 90 98 95 88 86 90 90 88 85 80 81 80 77 75 74 77
16 17 18 18 19 19 23 25 22 26 28 19 16 15 13 21 31 33 36 37 28 20 24 29 25 25 31 36 38 36 32 34 40 40 37 37 38 40 39 34 30 30 29 27 26 19 12 19 23 21 20 15 17 28 35 38 32 23 18 17 20 19 26 48 60 57 60 70 86 94 84 80 89 90 92 93 89 91 89 84 83 79 78 79 76 75 76 78
17 17 17 16 16 17 20 22 18 17 16 13 14 12 14 27 33 34 38 35 24 19 24 27 22 20 30 40 41 36 29 28 33 35 37 38 37 38 38 33 32 32 33 32 28 22 19 20 22 24 22 15 13 20 26 31 31 23 17 19 27 36 47 60 67 65 66 73 81 83 79 84 91 86 86 95 93 86 82 80 82 79 76 78 76 74 77 79
17 17 17 14 13 16 21 20 13 8 8 11 12 11 21 34 35 37 38 29 21 19 20 21 19 17 25 36 38 36 31 26 27 30 35 38 37 37 37 36 36 36 35 35 31 26 23 23 23 24 23 17 13 15 20 25 27 20 17 30 53 66 66 68 74 75 76 76 67 64 73 79 83 80 76 86 87 80 80 78 78 81 78 76 76 75 77 80
17 17 17 13 11 13 15 12 6 6 9 10 9 16 31 37 34 38 37 26 21 21 18 18 18 15 18 28 32 32 30 26 24 26 32 38 37 37 37 37 38 38 37 34 31 26 22 24 24 22 22 20 18 16 17 20 20 19 25 46 75 88 81 77 82 83 80 74 57 55 71 74 75 77 73 80 82 77 80 74 68 75 79 77 77 78 79 80
17 17 16 13 10 10 13 15 15 15 17 18 18 25 35 34 30 32 31 24 22 20 18 18 19 16 15 23 29 27 26 25 24 26 32 36 38 37 36 37 37 36 35 32 29 25 23 24 23 21 20 19 20 19 17 18 20 28 40 54 77 92 89 85 87 81 70 63 53 53 68 77 80 79 71 76 81 76 77 73 65 68 74 77 78 80 81 79
18 17 15 14 10 13 26 36 38 36 33 31 30 30 31 31 28 27 25 23 21 19 18 19 19 17 16 21 26 25 22 21 23 29 34 34 35 36 34 34 35 34 31 28 28 26 23 24 22 21 21 19 20 19 18 19 21 31 43 51 71 86 83 84 85 72 61 62 61 58 67 80 88 81 69 72 81 80 78 80 79 74 71 73 76 80 82 80
19 18 17 14 13 23 38 42 40 41 39 34 32 29 26 28 27 23 21 20 20 18 17 19 18 16 19 21 22 23 21 20 22 31 38 36 32 32 29 28 32 32 29 27 27 25 25 25 23 21 21 19 19 18 18 19 19 25 31 36 55 67 64 69 73 65 67 79 79 74 77 85 91 85 73 72 78 82 80 82 87 86 79 76 76 77 79 79
21 21 19 16 18 29 36 32 29 34 37 33 30 27 25 26 24 21 21 20 20 18 17 18 18 17 20 22 21 20 20 19 22 31 42 38 28 26 25 24 27 30 28 26 25 24 24 24 21 21 22 20 18 18 18 21 22 27 34 40 49 53 46 48 56 56 66 84 89 87 89 89 90 85 78 75 77 82 84 81 82 85 87 86 79 73 73 75
25 24 20 16 19 24 25 26 28 32 35 32 28 26 25 25 23 21 21 21 20 19 17 18 18 17 19 20 19 19 18 18 19 27 37 33 22 21 23 22 23 25 25 24 24 24 24 22 21 20 21 21 19 18 20 24 26 28 37 42 39 39 36 40 55 60 65 84 96 96 96 93 89 85 80 82 83 83 85 84 83 84 87 88 82 74 72 73
27 23 21 20 23 25 27 32 35 35 34 30 26 25 24 23 22 22 21 21 21 19 17 18 19 19 19 20 19 18 17 18 19 22 28 27 21 21 23 22 22 21 22 23 22 23 23 22 23 22 21 22 21 21 22 25 27 27 30 30 27 28 29 37 62 77 79 93 100 97 99 97 92 89 86 87 88 85 83 81 81 82 84 87 86 81 79 77
24 23 29 33 36 37 39 40 37 35 32 28 25 23 23 23 22 23 21 20 21 20 18 19 22 24 22 21 22 19 17 19 21 20 22 24 23 24 25 24 24 23 22 23 22 23 24 22 23 25 24 25 26 26 26 25 26 26 25 25 25 26 28 36 60 77 84 97 101 98 102 97 87 87 89 89 88 86 85 81 76 77 79 80 81 83 85 82
23 26 35 38 38 37 39 39 35 32 28 25 24 23 24 24 21 22 22 21 21 21 21 21 23 27 24 21 24 22 19 21 22 21 22 25 25 25 26 25 25 25 23 24 23 22 23 22 22 25 25 26 28 28 27 24 24 24 23 25 24 23 28 35 47 60 74 94 99 94 98 94 81 82 90 92 87 85 89 86 80 81 82 79 78 84 90 89
27 30 34 34 34 33 35 36 32 30 28 25 25 24 25 25 22 23 23 22 22 22 25 24 24 27 26 24 25 24 21 22 23 24 25 27 26 25 25 25 25 25 24 23 23 22 23 22 22 23 24 25 27 28 27 24 23 23 21 23 23 23 23 24 33 47 62 86 98 93 96 92 79 83 91 85 79 83 89 87 83 85 85 82 80 84 92 92
34 33 31 30 32 33 34 35 33 31 29 25 25 25 26 26 24 23 24 25 25 24 25 25 25 27 27 26 26 24 23 23 22 24 26 28 28 26 25 24 24 24 24 23 22 21 23 22 20 21 22 23 24 26 26 24 23 22 22 22 22 23 21 19 34 50 55 67 79 84 94 94 83 88 92 81 76 83 88 85 81 83 81 76 74 78 87 91
40 35 31 29 31 33 33 35 35 30 26 24 26 26 26 26 24 23 24 25 26 26 25 25 25 27 27 27 27 26 25 25 23 24 26 27 28 28 27 26 24 23 23 24 23 22 22 21 20 20 21 21 22 23 23 23 23 22 23 22 20 22 21 19 32 51 58 63 67 73 89 95 91 93 93 89 89 91 91 88 82 82 80 76 75 75 79 87
39 33 31 32 33 35 34 35 33 29 26 25 28 28 27 26 26 24 24 24 25 27 26 26 27 28 28 28 27 26 26 27 26 25 27 27 27 28 28 26 24 22 22 24 24 24 24 23 21 19 19 18 18 20 20 20 21 22 22 21 20 20 20 18 23 33 51 67 68 74 92 97 92 92 90 92 96 93 93 95 92 88 85 84 85 81 76 79
36 32 35 35 33 35 34 34 33 31 30 28 27 27 26 26 27 25 24 25 26 27 27 27 28 28 29 28 27 27 26 28 28 26 27 27 25 25 26 25 24 22 22 24 26 26 26 26 24 20 20 21 19 19 20 17 18 20 20 20 20 20 19 22 22 26 50 69 64 71 95 100 92 91 91 92 93 87 85 87 89 90 90 92 92 88 83 79
35 37 40 36 33 35 34 33 33 33 33 31 27 26 25 26 27 25 25 27 28 28 28 29 30 29 29 29 27 27 27 28 28 27 27 27 23 22 22 23 24 21 21 27 29 27 26 26 24 21 26 33 30 23 21 19 17 18 19 19 19 19 19 20 25 34 52 67 64 65 83 96 97 96 96 95 89 84 81 78 77 80 84 91 93 90 89 87
34 36 39 35 32 35 35 33 33 33 33 33 29 26 25 26 26 24 26 28 28 29 29 30 31 30 29 30 29 29 28 28 27 26 26 25 21 19 19 21 22 20 21 26 29 27 25 23 22 20 23 27 26 22 20 20 18 18 21 20 18 21 21 19 27 35 39 56 72 67 63 81 100 101 99 97 90 84 80 75 70 67 69 77 85 90 91 89
35 35 38 35 32 34 35 33 34 33 32 32 30 28 27 26 26 25 26 27 27 28 29 30 31 30 30 31 30 29 29 28 26 25 24 22 20 20 21 21 21 22 22 25 28 28 24 22 22 21 20 20 20 20 20 19 19 18 20 20 19 23 25 21 25 29 29 47 74 73 58 65 86 95 96 97 91 84 78 71 63 58 59 63 70 81 88 89
38 37 38 37 34 35 32 29 32 32 32 33 31 30 29 28 28 28 27 26 26 27 30 32 32 31 33 34 32 30 28 27 26 24 22 21 21 22 22 21 22 23 24 25 28 29 27 25 24 22 21 20 20 21 20 18 18 19 22 24 22 22 27 28 25 26 29 36 48 59 62 60 64 80 94 94 87 80 75 68 59 55 59 64 64 67 76 86
41 40 39 37 36 34 28 27 30 30 31 33 30 31 33 31 30 30 29 28 27 27 31 32 32 31 34 38 37 33 31 31 31 29 25 23 24 25 23 22 21 21 22 25 27 30 29 26 24 22 20 19 20 22 23 20 16 20 27 31 28 26 30 33 32 35 43 43 38 47 66 69 65 77 91 90 82 77 71 66 59 54 64 79 81 74 74 85
42 41 41 38 34 32 30 30 29 28 30 31 30 31 33 32 31 31 31 30 28 29 30 30 32 33 34 38 37 34 35 35 35 33 30 28 28 27 26 26 24 20 20 22 25 30 32 26 23 22 20 19 19 19 23 24 20 21 29 32 29 26 28 32 38 44 47 49 51 56 68 79 83 86 88 81 75 74 70 65 60 56 67 88 97 93 88 89
42 39 40 38 35 34 35 35 33 30 29 29 31 32 32 32 32 31 32 31 30 31 32 33 34 33 33 35 34 34 37 38 37 35 34 33 32 31 31 32 29 22 19 19 22 28 33 31 25 22 20 20 18 17 22 28 28 30 36 38 35 33 34 35 39 39 35 39 54 63 65 72 82 85 83 76 71 69 66 63 62 64 74 90 100 100 97 95
43 38 38 39 37 35 36 37 35 32 30 31 33 32 30 31 31 30 31 35 36 36 36 37 36 34 34 34 33 34 38 39 39 36 35 35 35 34 34 35 33 26 20 21 21 23 31 34 29 24 21 19 19 18 19 22 28 31 31 33 37 39 38 35 33 32 30 30 39 45 49 59 70 75 75 71 66 63 64 65 66 67 72 85 97 101 100 99
Wind_Speed
10 10 9 9 8 8 8 9 10 11 12 12 12 13 13 13 13 11 10 10 10 10 10 9 8 7 8 10 12 14 15 15 15 14 15 16 15 13 13 12 11 9 10 13 16 18 19 19 18 16 14 10 7 6 7 5 5 5 6 8 12 14 14 5 27 28 30 32 28 27 28 26 25 22 19 18 17 16 20 22 24 20 13 18 24 25 27 26
10 10 10 9 9 8 8 8 9 10 11 12 12 12 13 13 13 12 11 10 10 11 11 10 9 8 8 8 10 13 14 15 15 14 15 16 15 14 14 13 11 9 9 11 14 16 17 18 18 16 12 10 8 8 8 6 5 5 7 9 10 13 6 16 25 22 28 32 29 26 27 27 24 22 21 21 21 21 23 25 24 18 18 25 26 26 27 26
10 10 10 10 10 9 8 8 8 9 10 11 11 12 12 13 13 13 12 11 11 11 11 10 9 9 9 8 9 11 13 15 15 15 16 16 16 17 17 14 11 9 9 12 14 15 17 18 17 15 13 11 10 10 10 7 5 5 8 9 10 10 6 18 20 20 26 30 29 25 27 26 23 23 21 21 23 23 24 25 25 20 23 28 27 27 26 25
11 11 11 11 10 10 9 8 8 8 9 10 10 11 11 12 12 12 12 12 11 11 11 10 10 10 9 9 8 9 12 14 15 16 16 16 18 19 17 16 14 12 9 11 16 19 21 21 19 17 16 15 13 13 11 8 6 5 8 9 10 8 6 14 17 20 24 28 27 25 27 27 25 24 22 21 22 22 22 21 21 21 25 28 26 26 26 25
11 11 12 12 12 11 11 10 9 8 8 9 9 10 10 11 11 12 12 12 12 12 11 10 9 10 10 9 9 9 10 12 14 15 15 15 17 19 18 18 17 14 11 12 17 23 24 23 22 21 21 18 15 13 10 7 6 5 7 8 8 6 4 11 15 19 24 26 25 25 27 27 26 23 21 20 16 16 18 16 15 18 24 25 25 26 25 25
10 10 11 12 13 13 13 12 11 10 9 9 9 9 9 10 10 11 11 11 11 12 12 11 9 9 10 10 9 9 9 10 11 13 15 16 17 19 19 20 19 16 12 12 16 22 24 23 23 23 22 18 15 12 8 6 5 5 5 5 5 4 3 12 15 18 24 25 22 24 27 26 25 22 20 17 11 12 15 14 13 16 21 21 23 25 25 25
9 10 11 11 12 13 13 13 13 12 11 10 10 9 9 10 10 10 10 10 10 11 12 11 10 9 10 10 10 9 10 9 9 12 15 16 18 19 20 21 20 17 13 11 13 18 22 23 24 23 20 17 14 10 7 5 3 3 1 5 5 3 2 11 15 16 21 23 22 24 26 25 23 22 20 16 13 12 15 15 14 16 20 20 22 24 24 24
11 11 11 11 12 13 13 14 14 14 12 11 11 11 10 10 10 10 9 10 10 11 12 11 10 10 9 10 11 10 11 11 11 13 15 17 19 20 21 21 20 17 13 10 10 15 20 22 23 22 19 15 13 9 6 5 4 2 2 6 6 3 3 8 13 14 17 21 25 27 27 26 23 22 21 17 15 14 15 17 15 17 21 21 21 23 24 24
12 12 12 12 13 13 13 13 13 14 13 12 12 12 11 10 10 10 9 9 10 11 11 11 11 10 10 10 11 11 12 12 13 14 15 18 19 20 21 20 19 17 14 11 11 16 19 21 23 21 18 15 12 8 4 4 5 3 4 6 6 3 4 6 10 13 16 21 24 28 29 28 25 22 21 18 16 16 16 16 16 19 22 21 21 22 23 24
12 12 12 12 12 13 13 13 14 14 14 13 12 12 11 11 11 10 9 9 10 11 10 10 11 11 10 11 12 13 14 14 14 14 16 18 19 21 21 20 20 18 16 12 11 15 20 22 22 20 17 14 10 5 4 4 4 4 5 6 5 5 5 5 10 13 16 20 22 27 30 29 27 24 23 21 19 18 17 16 16 19 23 22 21 22 22 23
13 12 12 11 11 11 12 13 13 14 14 14 13 13 12 11 11 11 10 9 9 10 10 11 11 11 12 12 13 15 16 16 16 15 16 17 19 20 20 21 21 19 17 11 9 16 22 22 22 20 14 12 8 4 6 5 5 6 6 7 7 6 6 5 10 14 16 19 21 25 27 26 28 28 25 22 20 19 17 17 16 18 21 21 21 21 22 22
12 12 12 11 10 10 10 11 12 13 14 14 15 14 13 12 12 11 10 9 8 9 10 10 10 11 12 12 13 15 15 17 17 16 16 16 18 21 21 22 22 20 17 10 11 20 23 22 22 17 11 11 8 3 5 6 7 8 8 9 8 7 6 5 10 15 17 18 20 23 25 25 28 29 26 23 21 19 17 17 16 17 20 21 21 21 21 22
11 11 12 12 11 10 10 11 12 13 13 14 15 15 14 13 12 11 10 9 8 8 9 10 10 11 12 13 15 15 15 16 16 17 17 18 18 20 22 22 23 22 17 13 18 24 23 23 22 15 13 14 9 4 4 5 5 8 11 11 9 8 7 6 10 14 17 19 22 24 25 27 27 25 24 24 22 21 19 18 17 18 21 22 21 21 21 21
12 12 12 12 12 12 12 12 12 13 14 15 16 16 15 14 12 11 10 9 8 7 8 9 10 10 12 14 15 15 15 14 15 16 17 19 19 19 22 24 24 24 21 22 24 25 24 23 21 17 17 16 10 6 3 3 5 9 12 12 10 10 8 8 10 13 18 20 23 26 26 28 27 23 24 24 22 22 20 18 18 20 22 22 21 21 20 20
12 12 12 12 12 12 12 11 11 12 13 13 15 16 16 14 12 11 10 9 8 7 7 8 10 10 12 13 14 14 13 12 13 15 16 20 21 20 22 24 25 25 26 27 27 26 23 22 22 19 19 16 11 8 5 5 10 12 12 11 11 10 9 10 11 14 18 20 22 25 25 27 26 25 26 25 22 21 20 19 19 21 22 22 21 21 20 20
14 13 12 11 10 9 9 8 8 10 10 11 13 14 15 14 11 9 10 9 8 6 6 8 10 11 12 13 13 13 13 13 15 14 15 20 23 22 23 25 27 27 28 29 28 26 23 22 23 21 19 15 11 9 8 9 14 16 13 11 13 13 9 10 12 13 16 19 22 23 23 25 26 28 28 25 24 23 20 18 19 20 20 21 21 20 19 19
15 14 12 9 7 6 6 6 7 8 9 10 11 12 13 12 11 10 11 10 8 6 6 9 11 12 13 13 14 14 14 15 14 13 15 20 25 24 25 27 29 29 29 29 28 27 24 23 23 22 21 16 13 13 12 15 18 19 15 12 12 13 10 10 13 14 16 19 22 22 22 24 27 30 28 27 27 25 21 18 19 19 18 20 20 19 19 19
15 13 11 8 5 5 5 5 6 7 7 9 11 12 11 11 11 12 12 11 8 6 6 9 12 12 11 13 16 15 12 11 9 11 16 22 26 24 24 28 29 30 30 30 29 27 25 25 24 23 23 19 18 19 17 17 19 19 18 14 12 13 11 10 11 13 17 18 21 24 23 24 28 30 29 31 31 27 22 18 17 19 18 19 19 19 19 19
14 12 9 7 5 5 5 5 6 6 6 8 10 11 10 9 11 12 12 11 8 7 7 11 15 13 12 16 18 16 12 11 10 12 17 22 24 24 25 28 30 31 31 31 30 28 26 26 25 25 26 24 23 23 17 12 13 16 17 14 11 11 10 11 11 11 16 19 21 23 24 26 30 32 34 35 34 30 24 19 16 16 18 18 18 19 20 19
13 10 8 6 5 5 5 4 5 6 5 7 9 9 7 7 9 11 11 10 9 8 9 13 16 16 16 18 18 17 14 13 14 16 18 20 22 25 28 30 31 31 31 30 30 29 27 28 30 30 30 27 24 23 16 10 10 11 14 15 13 9 8 10 11 11 14 18 21 20 22 28 31 34 37 36 34 33 28 23 19 16 16 16 16 19 20 18
12 9 7 6 5 4 4 4 4 5 4 5 7 6 6 6 8 10 10 9 9 8 9 13 16 16 17 17 17 19 16 15 18 19 19 20 21 26 31 32 32 32 31 28 28 29 28 30 34 32 29 26 23 23 18 14 11 9 10 12 12 13 11 10 11 12 14 17 20 20 21 28 31 34 38 37 36 36 31 26 22 18 16 14 14 17 17 16
10 8 6 5 5 4 2 2 3 3 1 1 3 4 6 7 9 11 10 7 6 6 9 15 17 16 15 16 18 20 18 17 20 21 20 21 22 26 30 31 31 31 30 27 26 28 28 31 33 30 28 26 24 23 21 17 13 9 8 7 10 15 14 11 12 14 14 14 18 20 21 26 31 34 37 37 36 38 35 30 26 21 17 15 13 14 14 16
9 7 6 5 4 2 1 0 1 2 2 1 2 3 4 5 8 11 10 5 2 3 9 19 19 16 16 15 17 18 16 18 21 22 21 23 22 22 27 30 27 27 28 29 27 26 28 28 26 26 28 28 25 24 22 19 15 12 10 9 11 14 14 14 15 15 16 15 15 19 19 21 27 33 37 36 33 36 34 31 29 24 20 18 15 14 13 16
8 7 5 4 3 0 2 1 2 2 1 1 3 2 1 2 5 6 7 4 1 1 11 21 18 17 17 12 14 16 14 16 20 21 21 23 20 19 25 26 24 25 26 28 27 26 27 21 17 21 26 29 28 26 24 20 18 16 14 14 13 14 16 17 17 16 18 16 14 16 17 19 24 30 36 36 32 33 33 31 31 28 25 22 19 18 14 14
7 6 4 4 1 2 3 3 2 1 2 3 3 1 1 1 1 1 3 2 2 3 13 20 17 17 15 10 13 15 11 11 16 19 21 21 18 18 21 20 21 23 24 26 25 27 26 18 16 19 22 27 30 28 26 23 20 17 17 17 14 15 17 19 18 17 19 18 16 16 14 16 23 26 31 35 34 34 34 31 31 31 30 27 24 22 18 16
6 5 4 3 1 3 4 4 2 3 3 4 3 1 1 1 2 4 4 4 6 6 12 18 16 15 12 10 13 14 10 9 13 17 19 19 18 17 18 17 18 21 23 22 22 27 24 18 19 20 19 24 28 30 30 25 20 19 17 14 13 17 19 22 21 19 20 16 14 17 12 9 19 24 27 33 35 36 35 32 32 33 32 30 27 24 21 20
5 4 3 3 1 3 5 4 3 4 4 4 3 2 2 3 5 7 6 5 6 5 9 16 14 11 11 13 16 14 10 10 13 14 16 16 17 17 17 16 15 16 19 19 20 25 23 19 20 20 20 21 25 32 32 26 22 17 12 8 11 17 20 23 23 19 17 12 12 19 14 6 14 21 25 31 37 38 36 34 32 34 34 33 31 28 23 22
4 4 3 2 2 2 3 3 4 5 6 4 0 3 4 5 6 6 4 2 4 5 11 17 12 8 11 15 16 12 7 9 13 13 14 14 14 17 17 15 14 14 15 18 22 22 19 19 19 18 20 21 28 36 32 28 25 16 10 9 14 16 19 24 24 18 15 14 16 20 14 5 8 16 21 29 38 41 38 37 35 34 36 35 32 29 26 25
3 3 3 3 2 2 1 2 3 3 3 2 1 3 5 5 5 5 2 2 4 5 11 15 10 7 12 15 16 12 6 8 11 11 14 15 14 17 17 14 14 13 12 15 20 18 16 17 16 16 19 23 30 34 29 28 26 18 13 13 15 17 23 25 23 19 14 13 17 22 16 5 4 13 19 24 37 43 41 39 37 35 36 36 34 31 28 28
2 3 4 4 3 1 1 1 1 0 3 3 3 5 5 4 3 2 1 3 4 5 8 11 11 9 12 16 16 15 10 9 9 9 15 17 16 16 17 15 13 12 12 15 18 19 18 17 16 17 20 22 23 24 26 27 25 19 15 12 11 17 25 24 20 18 11 7 14 21 18 7 2 10 19 23 31 41 42 40 38 38 38 37 35 32 30 29
3 4 4 4 4 4 4 4 4 5 6 5 6 7 5 4 5 3 1 3 3 2 3 7 11 9 12 17 17 15 14 10 5 8 14 17 17 18 18 16 13 11 11 14 18 20 20 18 18 19 19 19 17 18 23 23 22 18 16 15 17 17 18 15 12 11 5 3 8 17 19 11 2 5 14 22 25 32 41 40 37 38 39 38 37 34 32 31
5 5 5 5 6 8 10 10 10 9 9 7 6 5 2 3 6 6 4 2 3 5 4 6 10 8 10 16 17 14 13 10 6 8 14 16 17 18 18 15 12 10 9 12 15 18 21 20 18 17 18 19 17 18 21 21 21 20 18 21 17 8 5 5 3 4 5 2 1 11 19 12 5 6 10 18 21 24 36 40 38 38 38 38 38 35 33 33
7 6 7 8 9 12 14 13 12 10 9 7 6 4 3 3 5 8 8 7 7 9 6 5 8 7 11 14 15 13 11 10 8 9 14 15 14 15 17 15 12 10 8 8 10 13 16 18 19 19 18 20 20 20 22 20 21 23 24 25 18 7 1 1 1 3 4 2 2 9 17 7 5 7 8 16 19 19 29 38 41 42 39 37 36 36 35 35
8 7 8 10 12 14 13 12 10 8 8 8 6 6 6 6 7 10 11 11 11 11 4 5 7 8 11 11 11 11 11 10 7 10 17 17 12 12 13 14 15 14 11 8 7 7 9 11 18 22 18 18 22 22 21 17 18 24 25 23 24 20 9 4 7 5 3 4 5 12 13 3 4 6 8 16 17 15 24 32 36 39 40 38 36 36 37 37
9 8 9 10 12 12 10 7 6 6 8 8 7 9 9 8 9 12 13 12 13 11 3 7 9 10 11 7 8 11 12 10 7 11 18 16 11 11 12 12 15 18 16 11 5 5 8 9 15 21 16 16 21 21 19 16 15 22 24 23 27 27 18 11 12 12 11 10 7 10 7 3 7 7 8 15 15 14 21 26 30 33 38 40 37 37 38 39
9 9 10 10 10 9 6 4 4 6 7 8 9 12 13 11 12 14 13 12 13 10 4 8 8 9 10 7 7 11 10 7 8 12 17 14 8 8 10 10 12 16 16 14 9 5 7 9 13 18 16 15 20 20 18 17 16 21 25 26 22 19 17 12 9 11 13 9 3 5 3 3 7 7 9 14 15 16 19 22 27 31 35 37 38 39 39 40
11 11 11 10 8 6 5 5 5 6 6 7 11 13 14 13 14 16 13 10 11 8 5 8 5 5 8 6 6 10 8 5 7 12 14 13 7 5 9 8 8 12 15 17 15 8 9 10 11 16 17 16 18 19 18 18 17 19 22 21 16 11 12 11 8 7 6 4 1 3 3 7 9 6 10 14 14 17 18 19 24 29 32 36 37 39 41 41
13 14 13 11 10 8 7 7 6 6 5 6 11 13 14 14 14 14 12 9 9 7 7 9 7 7 9 8 7 8 8 5 5 10 13 11 7 8 11 9 6 7 12 16 16 11 10 11 10 15 18 16 18 19 16 15 17 18 18 18 14 9 9 11 8 5 4 3 2 2 1 10 14 10 12 14 14 16 17 17 21 24 29 32 34 37 42 44
15 15 13 11 11 10 8 8 6 6 6 6 10 12 14 14 13 12 11 7 6 8 10 10 10 11 11 10 10 10 9 8 10 12 12 9 6 7 8 8 9 7 6 11 14 11 10 10 8 13 17 16 18 20 17 16 15 14 16 19 15 8 8 12 8 7 8 4 2 2 1 8 17 15 14 15 14 14 15 16 18 22 26 28 28 32 41 47
15 14 12 10 9 7 8 7 6 6 7 7 9 10 13 13 12 11 11 8 6 8 10 10 10 11 11 9 10 11 12 13 15 13 10 6 4 5 6 5 5 6 6 9 11 10 11 11 8 12 17 17 19 21 18 17 16 16 16 17 16 11 10 11 6 6 11 6 4 4 1 8 19 18 15 15 14 14 15 14 15 18 20 23 26 29 37 45
13 12 10 8 7 6 6 6 5 5 6 6 7 8 11 11 10 9 9 10 9 8 8 8 9 10 9 7 7 11 14 14 14 12 8 4 2 2 4 6 4 2 5 6 8 8 9 11 10 14 18 17 17 19 17 14 14 16 16 14 16 15 11 10 5 3 9 9 9 9 2 7 19 19 15 14 13 12 13 14 15 13 12 17 23 27 32 39
11 11 9 7 7 7 6 5 5 4 5 6 6 6 8 10 8 5 5 7 8 8 6 6 9 9 7 7 6 10 12 12 13 11 6 2 1 4 6 6 7 3 2 3 5 6 7 9 11 14 16 15 14 14 14 13 12 14 14 10 14 14 11 11 7 5 8 9 12 13 5 6 19 19 16 16 13 12 12 14 14 12 11 12 17 23 28 34
10 10 9 8 7 6 5 5 7 6 4 3 4 3 5 8 8 5 4 4 5 5 3 5 9 9 7 9 9 11 11 10 10 11 8 1 2 5 8 7 7 5 2 1 1 3 4 6 9 12 13 12 12 12 13 11 10 13 11 9 12 12 10 11 9 10 12 11 13 11 4 7 20 20 18 17 14 13 13 13 12 11 12 12 14 19 25 30
10 10 8 6 5 4 4 6 7 6 3 3 1 3 4 5 6 6 5 4 5 5 3 4 8 7 8 10 11 11 10 9 9 9 7 1 3 5 6 7 7 5 3 2 2 1 2 4 8 9 9 8 7 9 10 9 8 11 12 11 11 9 9 10 10 11 13 14 17 12 5 12 24 23 20 19 16 15 13 12 13 12 12 13 14 16 20 25
11 9 7 4 4 5 3 4 4 3 3 3 1 2 3 2 3 5 6 5 6 5 4 6 9 9 10 11 11 10 8 8 9 9 6 1 3 3 2 5 6 4 1 3 4 4 5 4 5 6 6 6 4 5 8 10 9 10 13 14 12 9 8 8 11 15 13 14 19 16 12 20 27 25 23 22 19 18 14 12 12 12 13 15 14 13 14 18
10 9 8 6 5 5 1 1 0 1 2 1 2 3 2 2 1 2 5 7 6 4 4 6 7 6 7 8 9 10 9 8 9 9 6 2 0 1 2 3 3 4 4 3 5 7 10 11 9 9 11 10 7 8 10 11 11 12 13 13 11 11 9 7 10 16 16 16 19 17 17 27 31 27 25 24 20 16 15 13 9 9 14 16 16 15 14 13
11 9 8 7 7 5 2 2 1 1 2 3 4 4 4 3 2 2 3 5 5 5 5 5 4 2 5 8 8 10 11 10 10 10 8 6 4 3 3 4 5 7 7 5 6 8 13 16 16 16 18 17 13 11 12 12 13 13 12 11 11 10 10 9 9 12 15 16 15 17 21 27 31 30 28 25 20 16 14 11 7 6 10 14 17 17 17 15
12 10 7 7 7 5 3 4 4 4 4 5 6 5 3 3 2 2 3 3 1 3 7 7 4 3 7 9 7 7 10 11 11 10 9 7 5 3 2 1 5 7 6 5 7 10 12 15 14 14 17 18 18 14 14 15 14 15 13 11 12 10 10 11 10 10 15 14 12 18 24 25 29 32 29 22 17 15 12 9 6 6 7 10 14 18 19 18
11 11 9 8 7 6 5 7 6 4 5 5 6 6 4 3 3 3 3 4 3 3 5 6 3 2 8 9 6 6 8 10 10 9 8 6 3 3 3 3 2 3 3 2 7 12 12 13 13 13 15 17 18 17 15 17 17 16 16 16 14 11 10 12 11 12 15 11 10 19 27 27 28 30 26 20 16 13 13 11 9 8 8 8 9 12 17 20
10 11 11 8 6 6 7 7 5 4 5 5 6 8 7 5 4 4 2 2 3 3 4 4 2 5 9 10 9 8 7 10 12 10 8 5 3 2 2 5 5 1 3 1 5 12 15 11 11 12 13 15 15 16 15 17 20 18 16 16 13 12 13 14 15 16 15 10 12 22 29 29 27 26 23 21 18 17 17 16 12 8 8 7 6 7 11 15
9 10 11 9 7 7 7 7 5 4 4 5 6 9 10 7 5 4 1 1 2 1 3 4 4 7 9 10 11 11 7 4 7 8 6 4 4 2 2 3 4 3 1 3 4 9 16 14 7 9 13 12 11 13 15 17 22 20 18 16 13 13 16 15 15 15 12 13 21 26 28 28 28 27 25 23 20 19 17 14 10 8 8 8 8 8 7 8
10 9 10 10 8 7 7 7 6 5 5 6 7 9 10 8 6 5 3 2 3 3 4 6 6 6 6 8 11 12 10 6 2 3 4 4 4 2 1 1 3 3 1 3 4 7 13 19 10 4 9 11 9 9 12 16 16 13 13 13 12 13 15 13 12 9 6 11 19 21 23 27 28 29 29 26 22 17 13 8 7 8 9 9 8 10 10 10
Wind_Direction
324 321 320 319 316 311 304 299 296 293 290 285 281 276 273 268 263 258 255 252 251 248 242 233 227 231 237 236 231 229 228 223 220 217 213 209 204 201 203 206 206 199 198 199 196 197 196 193 192 193 192 181 167 160 152 119 78 37 23 7 353 346 340 153 154 157 165 169 171 171 174 174 169 164 155 147 147 153 154 157 165 162 161 168 160 153 152 151
324 322 321 321 318 315 310 304 300 297 294 290 286 281 278 274 268 263 258 253 252 248 245 239 229 224 227 232 231 229 227 224 219 213 211 209 201 198 201 204 207 201 195 193 191 194 197 194 192 191 185 173 166 159 149 124 81 36 16 9 349 347 7 154 158 163 168 173 173 170 173 173 169 163 158 156 153 158 160 161 169 169 164 165 161 156 153 152
321 319 317 316 316 315 313 310 306 301 297 293 290 286 282 277 273 268 262 257 253 250 246 240 235 228 222 223 227 226 226 224 218 211 210 205 198 197 197 198 203 204 196 188 180 181 192 195 192 188 178 168 165 161 154 132 93 47 21 14 350 358 105 154 161 168 170 174 176 172 172 172 169 165 164 163 158 163 166 163 169 174 169 165 161 157 154 152
318 315 312 310 309 309 310 309 308 305 301 297 293 289 285 280 276 271 266 261 257 254 248 240 236 233 225 219 220 222 223 223 217 212 208 201 198 198 193 191 198 204 199 190 181 178 186 190 187 181 170 163 165 164 155 133 103 58 25 13 352 5 122 158 163 167 171 176 180 177 174 174 171 166 168 168 162 165 168 164 168 172 167 164 160 156 154 152
313 310 309 307 305 304 303 302 301 300 300 300 297 294 288 283 277 273 268 262 257 256 252 243 234 232 230 221 216 217 218 220 217 212 208 201 198 197 192 188 194 200 196 194 189 185 186 185 179 171 164 163 165 161 147 124 100 63 28 12 351 2 131 166 163 165 172 178 184 182 178 178 171 169 176 174 162 155 155 157 166 169 165 163 158 154 154 153
311 307 305 302 302 302 301 299 296 293 293 294 295 296 293 285 278 274 269 263 258 254 252 246 235 229 228 223 217 213 211 214 213 208 206 202 198 196 192 190 192 196 195 197 196 193 189 183 176 166 162 162 156 151 144 123 91 66 29 352 343 4 145 175 171 167 173 178 186 184 179 177 172 175 180 174 164 148 146 149 155 166 167 163 157 153 154 154
312 307 302 299 298 298 299 299 297 294 290 289 291 292 294 290 283 277 270 265 258 252 250 245 238 229 223 221 217 211 203 202 201 199 200 201 200 195 193 193 193 193 194 198 200 198 192 182 174 164 160 158 144 139 142 138 124 80 358 305 319 333 189 188 184 177 178 180 184 183 179 178 176 181 179 173 175 156 149 151 152 170 172 165 159 154 153 153
311 305 299 296 294 294 295 296 297 297 293 292 290 289 289 289 287 283 274 265 257 252 247 241 237 229 221 215 212 208 200 195 191 191 194 197 200 197 194 194 193 190 189 197 196 194 194 183 172 166 160 151 138 135 148 172 188 151 219 279 308 297 223 202 194 184 182 182 183 183 182 182 181 184 179 176 177 155 148 152 156 176 176 167 161 156 155 154
309 303 298 294 290 290 290 292 294 294 295 294 291 289 287 285 285 285 279 267 256 250 246 239 232 226 221 212 207 202 196 193 189 187 190 193 197 198 194 190 190 188 185 192 187 187 189 177 168 163 153 146 141 144 171 198 194 181 223 263 297 253 207 211 199 189 185 185 186 183 182 183 181 184 182 181 179 159 151 149 155 176 175 169 165 160 158 156
311 306 300 294 290 288 288 288 289 288 290 291 290 287 286 284 281 281 279 271 258 250 245 237 228 222 218 211 202 197 195 192 186 181 184 190 193 195 194 186 184 185 183 191 191 181 174 167 163 156 148 150 150 161 205 215 207 212 237 254 267 225 215 213 192 190 189 189 191 186 183 179 175 182 185 185 183 170 159 148 152 171 173 170 167 164 161 159
313 308 303 298 293 290 288 287 285 284 284 285 285 284 284 283 280 279 276 271 264 253 243 236 227 218 214 210 202 198 197 194 189 184 181 185 188 192 193 184 181 180 179 186 188 168 163 166 164 154 152 157 158 189 211 213 215 222 245 247 242 222 220 214 190 192 191 189 192 189 184 175 172 182 186 186 186 177 169 156 152 168 174 172 169 167 164 162
311 307 303 299 295 293 289 286 283 282 281 280 280 279 281 282 280 279 275 272 267 254 242 234 226 217 211 207 203 200 196 193 194 194 188 183 183 189 189 182 179 175 172 173 164 161 165 172 165 159 165 162 156 175 198 204 216 230 246 236 229 217 208 204 198 198 190 186 189 187 184 178 179 183 185 189 189 183 179 168 160 171 177 173 170 170 167 165
309 303 299 296 293 290 287 282 279 277 276 276 276 277 278 279 279 277 276 274 267 256 242 231 225 217 209 205 202 199 198 196 194 196 197 190 183 187 184 179 177 169 162 157 155 159 170 175 170 172 173 158 146 123 159 182 195 219 226 222 224 220 206 193 199 197 186 184 184 183 181 180 184 186 183 188 189 184 183 178 170 173 178 176 172 172 170 170
308 302 297 293 290 287 283 277 275 273 271 271 272 274 275 277 277 275 273 271 265 256 239 225 219 211 208 208 202 200 202 199 192 194 201 196 188 185 181 179 177 167 156 153 156 164 174 179 179 180 170 160 147 137 179 186 166 196 207 212 222 219 201 182 186 183 179 184 184 185 183 178 183 187 180 181 185 184 183 181 176 171 175 179 175 172 172 170
312 307 302 296 290 286 281 276 273 271 271 270 270 270 272 275 276 273 267 263 257 250 233 216 210 203 204 206 199 199 199 190 188 192 198 196 191 184 178 179 175 166 158 156 161 169 177 186 186 180 172 168 154 157 212 197 172 189 196 200 204 200 187 174 180 177 177 182 185 189 185 176 182 189 183 180 185 189 185 183 179 171 172 178 175 173 174 169
318 316 310 303 295 286 280 278 273 272 272 271 271 271 270 270 269 261 255 252 245 239 220 203 201 193 195 197 194 194 184 177 182 185 191 192 186 179 176 178 175 168 163 161 166 174 183 190 188 182 176 175 168 171 190 180 178 189 195 198 189 184 182 173 177 179 181 183 185 192 187 179 181 187 186 182 186 191 187 185 183 176 173 177 177 175 177 173
322 322 318 314 303 290 286 283 279 279 275 269 271 272 268 263 254 248 247 247 243 228 203 195 192 183 185 188 190 189 173 172 184 185 188 185 179 175 175 177 176 170 165 166 174 179 187 192 190 186 180 179 184 183 180 178 183 190 201 214 195 188 193 181 180 181 183 188 190 192 192 188 182 184 187 182 185 191 185 183 185 183 179 180 180 177 181 180
324 324 322 323 313 304 300 295 297 293 277 265 267 269 267 258 247 247 250 251 245 222 198 187 180 173 176 180 186 188 169 166 187 190 186 179 172 170 173 178 177 170 166 173 180 183 190 195 194 193 188 188 190 190 190 185 184 190 201 211 198 197 204 194 189 187 183 189 195 193 192 189 182 184 188 182 185 188 180 176 181 185 185 185 183 181 187 185
324 323 323 325 317 315 312 310 316 311 287 265 263 266 264 254 247 247 255 261 255 230 201 182 175 167 163 171 182 187 172 166 176 177 175 173 168 165 171 178 176 170 171 179 184 185 194 198 197 198 195 190 189 192 195 191 191 200 208 213 205 203 207 201 200 196 186 186 194 195 193 190 184 186 188 184 185 185 179 175 177 183 186 187 186 186 192 187
323 321 322 323 319 324 320 322 329 324 300 262 257 261 256 246 247 250 255 267 268 245 210 188 177 163 157 166 179 182 173 169 167 164 163 163 164 165 170 174 174 175 178 183 186 189 197 202 203 201 194 187 187 190 187 176 182 200 216 225 226 223 214 203 203 203 193 189 193 197 198 192 188 188 187 184 184 184 184 181 179 184 184 182 183 187 195 188
320 320 323 324 326 332 328 328 335 329 302 262 253 247 239 241 258 265 260 265 273 258 222 193 171 158 158 168 177 172 169 172 166 161 157 153 159 167 170 172 176 180 183 184 188 194 200 207 207 202 194 188 189 190 185 176 170 177 210 230 236 233 223 206 208 206 193 192 195 199 202 195 189 188 185 183 185 186 187 187 184 185 187 184 180 188 193 184
318 320 326 331 335 339 332 326 340 349 340 270 251 242 243 252 271 279 275 270 268 256 216 181 158 151 157 166 172 165 166 171 162 160 161 156 159 169 173 176 180 184 185 185 189 196 205 212 210 204 199 196 194 193 193 194 190 181 200 231 239 233 223 203 206 207 196 197 200 200 205 199 193 190 184 183 188 189 189 191 190 188 192 193 186 189 189 182
315 319 330 340 343 347 322 302 70 81 103 140 229 243 238 252 273 281 289 293 254 238 188 165 149 147 152 158 168 163 159 163 159 161 169 167 165 171 178 181 186 188 188 189 190 196 207 212 210 208 206 202 199 198 200 204 201 194 205 229 239 240 234 211 199 199 198 202 205 202 203 200 200 197 189 186 190 190 191 193 193 194 198 201 197 196 198 193
313 321 336 348 351 272 197 189 143 126 113 271 258 239 166 260 284 289 304 310 256 210 174 164 152 148 147 148 168 165 154 157 163 167 173 174 173 178 182 186 193 195 193 195 196 202 209 204 198 204 207 208 206 203 205 209 203 201 213 228 239 246 243 224 204 194 193 200 208 201 196 198 205 206 196 191 190 190 194 195 194 197 200 203 203 200 204 210
312 324 343 355 346 216 222 210 201 258 343 327 299 274 98 318 313 349 335 343 113 151 171 167 158 154 151 155 174 169 158 154 161 175 180 176 180 186 184 190 201 201 199 198 202 212 212 199 188 192 199 209 212 207 206 209 207 211 219 225 240 252 244 227 211 192 185 199 212 194 187 200 207 210 204 196 191 190 195 198 196 198 201 202 203 201 202 210
315 331 352 358 288 231 237 221 243 313 334 346 354 14 95 51 58 73 59 71 104 135 164 165 162 161 162 170 170 162 167 161 153 178 191 180 182 191 187 196 206 206 205 200 208 218 211 193 189 190 192 205 214 211 206 207 214 223 224 223 240 247 237 222 208 192 185 199 208 187 184 203 202 207 209 203 197 193 195 198 196 196 199 201 202 202 203 206
321 340 3 1 296 243 233 228 285 324 315 338 28 104 123 79 68 79 73 74 94 110 153 161 161 166 170 167 162 159 169 168 157 181 197 184 183 190 192 201 201 197 201 200 211 219 207 188 188 191 193 202 212 210 205 205 215 223 218 226 249 242 234 221 208 198 192 184 177 184 193 202 194 202 209 208 204 197 196 199 195 193 196 198 201 203 202 205
331 357 11 1 320 267 245 266 312 316 298 301 40 129 113 85 69 75 72 77 92 108 153 159 148 149 166 159 158 163 157 163 170 177 186 189 190 191 193 196 186 178 187 201 213 214 201 192 191 191 196 204 208 207 205 207 216 223 225 257 275 254 230 212 201 197 191 170 167 183 194 191 188 201 208 209 206 200 198 200 196 193 194 197 201 203 201 203
352 21 21 12 348 307 265 295 312 297 265 232 142 111 100 85 64 58 55 71 89 119 155 168 160 145 162 160 164 179 176 169 177 170 176 191 197 195 195 190 187 189 193 211 222 216 203 201 201 203 208 206 203 205 208 211 219 233 251 272 276 247 215 198 192 189 181 174 182 188 187 178 187 202 204 203 204 202 200 200 198 194 194 197 200 202 202 204
47 49 27 22 21 31 157 168 321 153 143 142 132 116 101 78 41 24 49 51 67 123 150 178 189 180 177 176 178 192 196 175 172 176 183 193 196 198 201 197 200 211 209 220 231 223 209 208 217 220 216 205 201 206 206 208 219 235 258 258 223 201 193 187 188 183 172 193 203 194 189 186 206 210 205 201 204 204 200 199 201 198 195 196 200 202 203 206
86 61 40 40 45 69 107 104 84 94 104 108 123 121 97 53 28 17 73 51 49 118 164 181 187 192 191 190 189 193 197 188 182 188 185 191 199 203 207 206 209 222 227 231 234 225 213 214 221 219 210 202 202 201 196 203 219 233 248 221 175 163 170 170 174 181 190 244 207 197 195 195 224 222 208 205 207 205 200 200 204 203 199 198 200 204 205 206
96 74 62 64 73 90 96 87 81 84 87 92 111 109 63 39 35 31 38 16 6 1 325 207 194 194 186 191 194 194 201 205 206 194 182 184 196 206 213 212 211 223 239 240 238 233 225 222 219 208 203 206 211 207 199 206 218 221 218 192 161 127 147 139 121 208 235 250 212 204 197 197 235 242 218 209 208 206 201 202 205 205 204 205 206 206 205 206
100 86 77 80 97 104 97 86 79 78 82 87 93 77 58 66 42 27 22 7 357 357 342 215 202 192 180 187 192 195 201 202 210 206 189 184 192 205 215 218 219 227 239 242 244 242 233 228 219 211 210 211 214 214 208 211 215 209 202 186 165 132 84 131 176 245 243 245 313 205 193 192 233 239 231 203 201 205 203 206 208 204 203 207 210 207 205 207
105 98 88 91 110 111 100 88 77 77 83 82 85 75 67 67 42 21 14 11 6 1 351 188 183 178 179 179 180 188 192 192 206 202 192 194 202 209 211 216 223 228 239 255 257 241 236 233 218 213 217 216 213 214 214 220 218 210 210 203 184 174 168 177 198 204 148 113 126 169 180 214 222 223 221 193 193 202 203 207 210 206 204 204 205 207 207 208
111 107 98 100 116 116 102 84 65 73 75 65 72 68 52 38 22 17 14 14 15 17 57 170 175 175 179 170 163 183 192 192 198 194 194 200 211 213 209 210 218 224 237 251 245 226 245 250 222 211 212 215 213 212 214 216 203 195 199 199 191 188 187 185 194 189 148 112 117 159 174 235 212 216 210 189 192 197 199 205 207 206 206 203 203 208 209 209
119 114 106 107 116 117 103 76 58 69 60 48 64 62 47 35 27 21 17 16 21 29 103 160 173 182 184 181 183 193 197 200 201 195 194 199 213 214 203 209 221 224 233 237 225 227 248 243 221 211 210 211 212 211 211 209 187 172 180 187 189 194 196 183 167 160 142 114 118 173 168 184 190 212 206 193 199 197 195 202 203 205 206 204 207 211 211 209
119 118 111 110 110 106 91 72 59 56 46 50 62 58 51 48 38 23 16 22 31 38 124 146 143 164 166 165 188 195 192 190 197 191 184 189 199 170 169 190 220 222 227 229 229 243 256 243 213 200 202 203 205 205 209 213 200 178 178 182 174 171 183 174 136 121 121 87 136 176 178 175 175 203 209 202 205 201 199 203 205 207 209 209 211 213 213 209
117 117 113 109 96 84 74 66 60 52 53 68 68 61 55 47 36 24 19 27 40 52 99 110 96 107 136 141 135 160 178 160 169 183 174 174 172 141 152 162 160 191 219 225 229 239 251 249 215 191 195 193 192 195 194 197 204 200 190 183 173 163 170 164 147 142 130 82 128 170 187 189 191 205 209 207 206 201 203 208 207 210 213 215 215 216 213 207
123 121 119 109 90 77 70 68 69 68 73 80 73 62 47 39 41 36 21 19 39 59 77 86 95 107 126 143 126 132 162 139 133 160 159 149 144 125 129 140 136 146 190 210 223 232 232 235 215 190 192 188 188 194 185 168 176 194 194 189 189 185 161 153 145 158 159 131 149 175 283 211 207 212 212 208 208 203 204 208 210 212 215 215 215 215 211 206
129 129 128 113 94 82 66 60 73 82 76 78 75 58 38 36 50 47 26 23 45 66 75 79 91 102 112 131 134 142 155 139 130 138 132 116 116 101 87 96 128 144 151 179 206 219 220 221 202 171 178 185 189 194 193 178 168 174 181 186 190 182 154 144 128 145 160 145 127 149 274 218 206 212 214 208 209 208 205 209 215 217 216 216 217 214 207 204
139 142 140 123 114 105 67 48 63 78 73 78 75 53 39 42 57 62 47 41 50 68 86 85 77 84 100 114 135 154 158 154 148 139 121 113 124 36 30 30 33 128 149 169 193 199 205 205 179 159 169 184 188 188 192 191 183 181 181 180 184 184 166 146 119 128 162 162 166 167 166 203 199 204 205 204 210 208 206 213 219 218 212 215 220 217 209 204
150 152 149 128 119 111 84 58 61 76 86 84 65 46 54 57 58 74 64 51 57 65 86 98 69 64 100 121 133 154 157 159 164 165 163 161 264 300 315 344 1 15 110 147 174 175 178 182 169 161 167 176 178 176 180 187 190 188 186 186 188 192 183 169 170 174 162 160 171 165 129 182 192 191 192 200 206 201 202 211 218 220 214 213 218 217 215 211
149 144 140 127 122 114 93 80 79 86 94 70 42 55 77 67 64 79 70 58 66 52 55 95 68 61 108 132 137 146 143 134 142 165 177 165 336 310 307 312 334 348 353 64 136 160 168 178 165 153 155 160 163 166 168 178 192 189 183 187 194 198 195 189 200 194 171 160 162 151 98 184 184 181 190 200 198 192 196 200 204 210 213 216 217 215 215 216
150 139 138 136 141 133 92 76 81 80 54 5 13 115 97 69 65 66 52 51 63 42 17 65 69 83 125 139 145 145 137 124 124 152 173 124 8 336 318 303 311 323 335 15 31 134 132 163 163 143 130 131 150 167 168 171 180 180 180 185 187 189 183 183 196 190 176 175 175 161 132 178 180 180 190 197 195 190 191 197 200 201 205 215 219 214 212 214
159 154 162 168 157 145 109 76 78 62 25 351 282 153 115 96 64 44 50 75 86 72 70 89 97 120 136 135 143 147 140 134 133 151 171 111 15 2 308 281 286 281 278 60 83 99 82 101 172 172 153 142 150 162 166 170 160 154 173 188 190 188 185 184 186 182 179 184 184 174 156 167 178 186 192 195 196 193 192 199 205 207 209 215 215 212 213 213
172 171 180 190 178 166 186 290 40 47 34 271 214 204 204 185 153 62 75 94 105 100 86 89 99 130 137 117 121 131 130 127 127 135 147 146 344 132 183 224 231 212 196 132 104 106 97 94 99 110 117 121 136 149 158 175 170 151 159 175 180 184 195 200 190 188 189 184 183 187 178 170 174 184 192 194 195 197 200 202 208 215 216 218 219 215 213 213
182 172 172 182 182 186 227 253 212 157 163 189 171 163 201 202 150 127 122 107 105 119 128 115 90 102 126 111 104 111 118 123 125 126 130 137 150 143 149 183 180 177 178 157 137 126 111 102 94 89 91 94 106 134 154 168 171 161 154 155 162 175 191 195 192 196 195 183 182 193 190 179 177 182 189 191 191 194 196 193 199 217 218 219 221 221 218 214
183 175 172 169 167 171 155 121 128 151 165 180 167 145 168 202 176 166 178 173 138 136 146 138 100 87 124 122 115 116 119 121 119 119 126 128 120 98 71 155 177 182 175 156 160 148 116 104 101 88 86 95 100 115 147 163 162 159 153 149 158 171 186 194 200 201 193 194 204 195 187 187 188 185 185 185 186 191 189 183 194 210 216 221 222 223 223 221
180 174 170 161 157 159 136 112 113 149 163 165 169 167 180 204 195 177 163 170 179 161 146 134 99 130 142 137 150 157 128 109 100 103 119 123 95 58 49 58 101 209 213 143 156 160 135 111 111 100 88 95 98 101 131 159 162 155 150 151 157 161 168 181 188 184 180 195 216 188 179 184 189 184 180 179 184 196 197 201 216 217 212 223 230 227 224 221
174 167 164 160 155 154 145 133 132 157 166 155 153 162 172 179 177 171 150 160 175 162 149 150 151 166 163 162 175 175 130 93 90 98 106 117 129 119 58 47 43 356 245 174 132 162 162 133 110 114 105 95 95 95 109 146 161 154 143 145 152 153 154 157 161 165 167 173 183 178 175 177 178 178 180 184 192 201 201 206 219 216 204 209 214 225 231 227
176 170 171 174 168 159 158 156 156 173 180 166 154 156 165 180 197 209 221 201 209 186 143 161 168 166 176 187 188 186 178 111 91 96 105 125 147 139 57 37 36 35 210 193 117 146 171 170 126 106 116 107 100 99 101 126 142 138 128 128 135 147 151 149 153 161 169 169 169 174 178 177 175 179 184 189 194 198 198 206 218 203 176 176 189 201 216 218
192 183 185 190 183 171 171 164 164 188 187 173 171 169 171 183 203 228 241 179 161 146 140 159 172 167 181 197 188 185 192 195 162 105 113 129 142 134 95 334 321 359 30 188 157 128 162 180 181 88 109 117 104 111 121 121 119 114 115 121 127 142 148 149 154 162 179 177 172 176 181 181 181 183 186 190 190 185 179 185 209 202 176 163 177 193 197 198